Regional Weather Roundup
Issued by NWS

Home | Current Version | Previous Version | Text Only | Print | Product List | Glossary Off
Versions: 1 2 3 4 5 6 7 8 9 10 11 12 13 14 15 16 17 18 19 20 21 22 23 24 25 26 27 28

000
ASUS45 KSLC 231610
RWRUT

UTAH REGIONAL WEATHER ROUNDUP
NATIONAL WEATHER SERVICE SALT LAKE CITY UT
1000 AM MDT WED AUG 23 2017

UTZ001>011-023>025-231700-

NORTHERN UTAH

CITY           SKY/WX    TMP DP  RH WIND       PRES   REMARKS
BRIGHAM CITY   MOSUNNY   75  49  39 CALM      30.19S
DUGWAY         MOSUNNY   77  45  32 S5        30.17S
HILL AFB       MOSUNNY   76  47  35 E7        30.20S
LOGAN          MOSUNNY   72  54  53 NW3       30.20F
OGDEN          SUNNY     76  48  37 E3        30.18S
SALT LAKE CITY PTSUNNY   76  52  43 SE6       30.17S
TOOELE VALLEY  SUNNY     77  52  41 S5        30.18S
WENDOVER       CLOUDY    73  50  44 E7        30.17S
HEBER CITY     MOSUNNY   63  50  63 CALM      30.27S
WEST JORDAN    MOSUNNY   75  58  55 S9        30.20S

$$

UTZ011>015-024>027-231700-

CENTRAL/NORTHEAST UTAH

CITY           SKY/WX    TMP DP  RH WIND       PRES   REMARKS
PROVO AIRPORT  MOSUNNY   72  54  53 CALM      30.21F
MOAB/CANYONLAN SUNNY     80  48  32 E10       30.19F
DELTA          SUNNY     73  46  38 CALM      30.20F
PRICE          SUNNY     70  51  51 SE5       30.29S
RICHFIELD      SUNNY     70  50  49 S7        30.28
ROOSEVELT      MOSUNNY   72  45  37 CALM      30.27S
VERNAL         CLOUDY    74  48  39 NE3       30.26S

$$

UTZ013>016-019>022-027-231700-

SOUTHERN UTAH

CITY           SKY/WX    TMP DP  RH WIND       PRES   REMARKS
BRYCE CANYON   SUNNY     65  49  56 NE5       30.41S
CEDAR CITY     SUNNY     70  48  45 VRB3      30.26S
MILFORD        SUNNY     69  49  48 S10       30.22S
ST GEORGE      SUNNY     78  48  34 SE3       30.10S
HANKSVILLE     SUNNY     77  45  31 CALM      30.23S
BLANDING       SUNNY     74  49  42 E5        30.38S

$$

REGIONAL REPORTS     COLORADO/ARIZONA

CITY           SKY/WX    TMP DP  RH WIND       PRES   REMARKS
CRAIG, CO      MOSUNNY   65  45  48 CALM      30.33S
GRAND JUNCTION SUNNY     76  48  37 S8        30.23F
RIFLE, CO      SUNNY     68  47  46 CALM      30.29F
MONTROSE, CO   MOSUNNY   68  46  45 CALM      30.33S
CORTEZ, CO     MOSUNNY   73  51  46 CALM      30.31S
COLORADO CITY    N/A     75  52  43 CALM      30.24S
PAGE, AZ       SUNNY     80  47  31 VRB3      30.17S
GRAND CANYON   SUNNY     73  45  36 VRB3      30.35S
KINGMAN, AZ    SUNNY     85  50  29 N6        30.09S
FLAGSTAFF, AZ  SUNNY     75  44  33 VRB3      30.37S

$$

REGIONAL REPORTS    NEVADA/IDAHO/WYOMING

CITY           SKY/WX    TMP DP  RH WIND       PRES   REMARKS
LAS VEGAS, NV  MOSUNNY   90  45  21 VRB6      29.99S
ELY, NY        SUNNY     66  46  48 CALM      30.30S
ELKO, NV       SUNNY     68  48  48 CALM      30.23S
POCATELLO, ID  LGT RAIN  73  50  44 S20G30    30.20R
BURLEY, ID     CLOUDY    68  56  65 SW8       30.14S
FORT BRIDGER,  CLOUDY    61  51  69 SE8       30.40S
EVANSTON, WY   CLOUDY    62  51  67 NE6       30.38R
ROCK SPRINGS,  CLOUDY    69  40  34 W15       30.34R
KEMMERER, WY     N/A     61  43  51 NW7G17    30.40R

$$




USA.gov is the U.S. government's official web portal to all federal, state and local government web resources and services.